Regional Weather Roundup
Issued by NWS Pendleton, OR

Home | Current Version | Previous Version | Text Only | Print | Product List | Glossary On
Versions: 1 2 3 4 5 6 7 8 9 10 11 12 13 14 15 16 17 18 19 20 21 22 23 24 25 26 27 28 29 30 31 32 33 34 35 36 37 38 39 40 41 42 43 44 45 46 47 48 49 50
458
ASUS46 KPDT 260710
RWRPDT
PENDLETON REGIONAL WEATHER ROUNDUP
NATIONAL WEATHER SERVICE PENDLETON OREGON
1100 PM PST SAT FEB 25 2017

NOTE: FAIR INDICATES FEW OR NO CLOUDS BELOW 12,000 FEET WITH NO
SIGNIFICANT WEATHER AND/OR OBSTRUCTIONS TO VISIBILITY.

# INDICATES UNOFFICIAL STATION AND DATA

WAZ520-260810-
EAST SLOPES OF WASHINGTON CASCADES

CITY            SKY/WX      TMP DP  RH  WIND    PRES   REMARKS
#CLE ELUM HS    N/A         31  24  75  W5      29.81F
#CLE ELUM LAKE  N/A         28  24  85  CALM    29.90F
#GLENWOOD       N/A         34  26  72  SW6     29.97F
#MANASTASH CYN  N/A         30  20  66  CALM    29.79F
#NELSON 3SW     N/A         26  24  92  CALM    30.14F
#NILE           N/A         28  23  81  CALM    29.18F
#TEANAWAY 4NE   N/A         29  24  81  CALM    N/A
#TROUT LAKE 1NE N/A         32  25  75  CALM    29.98F
#TROUT LAKE 1E  N/A         33  24  69  CALM    29.92F
$$

WAZ521-260810-
SIMCOE HIGHLANDS

CITY            SKY/WX      TMP DP  RH  WIND    PRES   REMARKS
#BICKLETON HS   N/A         30  24  78  SW10    29.47F
#CENTERVILLE 1SWN/A         33  28  82  W14     29.95F WCI 23
#GOLDENDALE 1NE N/A         35  20  54  S2      N/A
#GOLDENDALE 4W  N/A         34   1  24  W7      29.93S
#GOODNOE HILLS  N/A         37  25  61  W10     29.82F
#LYLE 6NE       N/A         36  30  79  W9      29.95S
#PITT 4SE       N/A         31  27  85  CALM    30.01S
$$

WAZ026-260810-
KITTITAS VALLEY

CITY            SKY/WX      TMP DP  RH  WIND    PRES   REMARKS
ELLENSBURG AP   MOCLDY      33  25  72  NW10    29.84F
#ELLENSBURG CWU N/A         33  27  78  NW5     29.87F
#ELLENSBURG 3NE N/A         31  26  81  CALM    27.93F
#ELLENSBURG 1E  N/A         32  N/A N/A CALM    N/A
#KITTITAS 4N    N/A         31  24  75  W1      29.86F
#KITTITAS 3S    N/A         31  26  81  CALM    29.94F
#THORP 6N       N/A         30  25  81  NW9     29.95F
$$

WAZ027-260810-
YAKIMA VALLEY

CITY            SKY/WX      TMP DP  RH  WIND    PRES   REMARKS
SUNNYSIDE AP    CLOUDY      32  28  85  CALM    29.91F
YAKIMA AIRPORT  CLOUDY      37  25  61  E3      29.88F
YAKIMA-VAGABOND MOCLDY      31  25  78  SW7     29.84F
#DONALD 2NE     N/A         35   9  33  W1      28.73F
#GRANDVIEW      N/A         34  26  72  CALM    29.95F
#MABTON         N/A         34  30  85  S1      29.90F
#MOXEE 2E       N/A         35   0  22  E3      29.87F
#NACHES 2SW     N/A         32  25  75  CALM    29.87S
#TERRACE HTS    N/A         35  25  66  CALM    29.90F
#TOPPENISH      N/A         34  28  78  CALM    29.85F
#WEST VALLEY    N/A         34  26  72  CALM    29.92F
#W YAKIMA       N/A         34  25  69  CALM    29.93F
#WHITE SWAN 5E  N/A         31  27  85  CALM    29.94F
#WILEY CITY 3W  N/A         34  21  58  CALM    29.83F
$$

WAZ028-260810-
LOWER COLUMBIA BASIN...WASHINGTON

CITY            SKY/WX      TMP DP  RH  WIND    PRES   REMARKS
PASCO           CLOUDY      38  27  64  SW9     29.93F
PROSSER AWOS    N/A         36  36  100 NE3     29.94F
RICHLAND AWOS   CLOUDY      39  30  70  S3      29.92F
#BENTON CITY    N/A         36  28  72  CALM    29.85F
#CONNELL 5N     N/A         32  28  85  W2      29.93F
#CONNELL 5NW    N/A         33  29  85  W3      29.89F
#ELTOPIA 6NW    N/A         35  29  78  CALM    28.87S
#KAHLOTUS       N/A         34  28  78  W15     29.93F WCI 24
#KENNEWICK 3S   N/A         37  29  72  W6      29.94F
#PATERSON       N/A         37  31  79  NW2     29.93F
#SAGEMOOR 2W    N/A         34  28  78  SW1     29.77F
#TOUCHET 2S     N/A         39  29  67  SW14    29.93F WCI 31
$$

WAZ029-260810-
FOOTHILLS OF THE BLUES...WASHINGTON

CITY            SKY/WX      TMP DP  RH  WIND    PRES   REMARKS
WALLA WALLA AP  MOCLDY      38  26  62  S14     29.91F WCI 30
#CLYDE 6NW      N/A         33  27  78  CALM    29.94F
#DAYTON SCHOOL  N/A         37  20  50  SW12G24 29.92F WCI 29
#LOWDEN 2SE     N/A         40  29  64  SW6     29.90F
#PLEASANT VIEW 1N/A         31  28  88  SW7     29.98F
#PRESCOTT       N/A         36  30  79  CALM    29.94F
#WHITMAN COLLEGEN/A         39  28  64  S3      30.01F
#WAITSBURG 5S   N/A         35  27  72  SW12    30.05F WCI 27
#WALLA WALLA 5E N/A         38  28  67  S14     N/A    WCI 30
#WHITMAN MISSIONN/A         40  30  67  S3      29.97F
$$

WAZ030-260810-
BLUE MOUNTAINS...WASHINGTON

CITY            SKY/WX      TMP DP  RH  WIND    PRES   REMARKS
#DIXIE 5SE      N/A         30  22  72  SW18G26 29.77F WCI 18
#SKI BLUEWOOD   N/A         22  18  84  N2      29.75F
$$

ORZ009-041-WAZ024-260810-
COLUMBIA RIVER GORGE

CITY            SKY/WX      TMP DP  RH  WIND    PRES   REMARKS
HOOD RIVER AP   PTCLDY      39  30  70  NW8     29.95F
THE DALLES AP   MOCLDY      42  32  67  W7      29.96F
#ARLINGTON AIRPON/A         39  30  70  W9      29.97F
#ARLINGTON HS   N/A         42  28  57  E5      29.89F
#CELILO DOT     N/A         42  28  57  SW6     N/A
#LYLE           N/A         43  34  70  NW7     29.98F
#MOSIER 1S      N/A         38  20  48  CALM    29.91F
#MURDOCK        N/A         42  34  73  W8      29.97F
#RUFUS DOT      N/A         43  31  62  W8      N/A
#SMITHVILLE     N/A         42  34  73  N9      29.92F

$$

ORZ510-260810-
NORTH CENTRAL OREGON

CITY            SKY/WX      TMP DP  RH  WIND    PRES   REMARKS
#CHENOWITH 1W   N/A         34  29  82  W17     N/A    WCI 23
#COW CYN RST AREN/A         32  20  61  SW6     N/A
#DUFUR 9E       N/A         32  29  89  CALM    30.03F
#GRASS VALLEY 1SN/A         34  27  75  W7      30.05S
#KENT DOT       N/A         33  16  49  N14     N/A    WCI 23
#MAUPIN SCHOOL  N/A         41  26  55  SW2     29.98F
#MORO SCHOOL    N/A         35  32  89  SW3     29.99S
#SHANIKO 5WSW   N/A         30  15  53  N13     N/A    WCI 20
#SHANIKO 4NW    N/A         30  21  69  W18G26  29.86S WCI 18
#TYGH VALLEY 2NEN/A         40  28  62  N9      29.96F
#WAPANITIA AIRPON/A         36  26  67  W6      30.01S
#WASCO DOT      N/A         37  29  72  W9      N/A
#WASCO AIRPORT  N/A         36  28  72  W10     N/A
#WASCO 5NE      N/A         34  29  82  N3      29.98F
$$

ORZ511-260810-
CENTRAL OREGON

CITY            SKY/WX      TMP DP  RH  WIND    PRES   REMARKS
BEND AIRPORT    CLOUDY      32  19  58  SW14    29.89F WCI 22
MADRAS AIRPORT  CLOUDY      32  23  69  CALM    29.94F
PRINEVILLE AP   CLOUDY      30  23  75  CALM    29.91F
REDMOND AIRPORT PTCLDY      30  20  66  E3      29.90F
#ASHWOOD SCHOOL N/A         31  24  75  CALM    29.90F
#BEND 1SW       N/A         29  23  78  W3      N/A
#BEND-AWBREY    N/A         31  20  63  S5      29.99F
#BEND-KIM LN    N/A         28  22  78  CALM    29.94F
#CULVER         N/A         33  22  63  W13     29.93F WCI 24
#CULVER 8W      N/A         34  17  49  SW3     29.92F
#LAKE BILLY CHINN/A         35  N/A N/A W5      30.03F
#POWELL BUTTE 3EN/A         27  22  81  SE1     N/A
#POWELL BUTTE   N/A         31  15  51  SW5     29.86F
#PRINEVILLE 3N  N/A         29  24  81  E5      30.00F
#WARM SPRINGS   N/A         35  26  69  CALM    29.91F

$$


ORZ509-260810-
EAST SLOPES OF OREGON CASCADES

CITY            SKY/WX      TMP DP  RH  WIND    PRES   REMARKS
SISTERS AWOS    N/A         32  19  58  SW5     29.88F
#BLUE BOX PASS  N/A         26  N/A N/A NW2     N/A
#CAMP SHERMAN   N/A         31  22  69  CALM    30.04F
#LA PINE 4NW    N/A         25  18  74  CALM    30.12F
#LAVA BUTTE DOT N/A         26  16  65  S2      N/A
#SISTERS ODOT   N/A         31  N/A N/A CALM    N/A
#SISTERS 1NW    N/A         32  13  45  N3      N/A
#SISTERS 3N     N/A         32  15  49  NW2     29.88F
#SUNRIVER       N/A         28  21  75  S2      30.07F
#TUMALO 3W      N/A         28  19  68  CALM    29.88F
#WANOGA BUTTE D N/A         19  12  74  SW13    N/A    WCI  6

$$

ORZ044-260810-
LOWER COLUMBIA BASIN...OREGON

CITY            SKY/WX      TMP DP  RH  WIND    PRES   REMARKS
HERMISTON       MOCLDY      39  28  64  SW13    29.92F WCI 31
#BOARDMAN SCHOOLN/A         40  30  67  SW2     29.94F
#BOARDMAN 8SW   N/A         38  31  76  SW7     29.95F
#ECHO 8SW       N/A         39  28  64  SW3     29.94F
#I-84 EX 198 DOTN/A         38  26  62  N12     N/A    WCI 30
#IONE SCHOOL    N/A         39  25  57  SW6     29.99F
#UMATILLA       N/A         40  27  59  SW3     29.88F
$$

ORZ507-260810-
NORTHERN FOOTHILLS OF THE BLUES

CITY            SKY/WX      TMP DP  RH  WIND    PRES   REMARKS
PENDLETON AIRPT CLOUDY      36  26  67  S10     29.91F
#ADAMS 3WNW     N/A         33  28  82  SW6     29.98F
#ATHENA         N/A         36  27  69  W3      30.01F
#CAYUSE         N/A         38  26  62  SW12    29.96F WCI 30
#HELIX SCHOOL   N/A         33  27  78  N10     29.98F
#HELIX 3N       N/A         33  27  78  S7      29.87F
#HOLDMAN 5SE    N/A         36  28  72  SW6     29.90F
#HOLDMAN 6E     N/A         35  27  72  SW7     29.77F
#M-F FERNDALE   N/A         39  25  57  CALM    29.91F
#M-F GROVE ELEM N/A         38  25  59  S2      29.90F
#M-FREEWATER 5SEN/A         38  25  59  S3      29.92F
#PENDLETON DNTN N/A         39  22  50  SW5     29.92F
#PDT AQUATIC CTRN/A         37  24  59  SW3     29.93F
#PDT SUNRIDGE   N/A         35  28  75  S7      29.94F
#PENDLETON 7NW  N/A         37  26  64  SW2     32.08S
#PILOT ROCK 1S  N/A         35  21  56  S6      29.93F
#PILOT ROCK     N/A         34  26  72  W3      29.94F
#TUTUILLA       N/A         35  27  72  S7      29.98F
#UMAPINE 2E     N/A         40  30  67  S3      29.91F
#WESTON SCHOOL  N/A         35  22  59  W8      29.84F

$$

ORZ508-260810-
SOUTHERN FOOTHILLS OF THE BLUES

CITY            SKY/WX      TMP DP  RH  WIND    PRES   REMARKS
LEXINGTON       CLOUDY      37  25  61  S8      29.94F
#AJAX           N/A         35  18  49  S9      30.06S
#CONDON SCHOOL  N/A         33  24  69  SW10    29.85F
#CONDON 5W      N/A         30  20  66  SW14    29.84F WCI 19
#HEPPNER EOC    N/A         35  24  64  W10     29.93F
#HEPPNER 4NE    N/A         31  23  72  S5      30.00F
#LEXINGTON 2SE  N/A         37  26  64  S3      29.89F
#MIKKALO        N/A         36  25  64  W3      30.03F
#OLEX 4N        N/A         36  29  75  W5      29.93S
#RUGGS 5NE      N/A         31  23  72  SW6     30.04F
#RUGGS 2SW      N/A         30  23  75  SW6     30.02F

$$

ORZ502-503-260810-
BLUE MOUNTAINS

CITY            SKY/WX      TMP DP  RH  WIND    PRES   REMARKS
MEACHAM         CLOUDY      26  20  78  CALM    29.85F
#BATTLE MTN DOT N/A         25  18  74  S2      N/A
#GREENHORN 9SW  N/A         22  19  88  CALM    29.91S
#HEPPNER 15SE   N/A         25  20  81  S3      30.13F
#LADD CYN SMT   N/A         28  18  66  SE6     N/A
#LADD CREEK ODOTN/A         30  20  66  SW2     N/A
#LONG CREEK HS  N/A         28  26  92  CALM    N/A
#N POWDER DOT   N/A         30  22  72  SE3     N/A
#PIKES PEAK     N/A         28  20  71  NW22G30 27.99S WCI 14
#TOLLGATE       N/A         20  19  96  S3      29.67F
#TROY SCHOOL    N/A         36  28  72  W2      29.82F
#UKIAH          N/A         27  24  88  CALM    29.96S
#WESTON 4E      N/A         29  23  78  SW7     29.98F
$$

ORZ505-260810-
JOHN DAY BASIN

CITY            SKY/WX      TMP DP  RH  WIND    PRES   REMARKS
JOHN DAY        CLOUDY      30  20  66  CALM    29.89F
#JOHN DAY KJDY  N/A         27  N/A N/A CALM    30.89F
#ANTELOPE 9ESE  N/A         33  26  75  CALM    N/A
#DAYVILLE SCHOOLN/A         31  21  66  CALM    29.90F
#MITCHELL       N/A         29  24  81  CALM    30.07F
#MITCHELL 8NW   N/A         30  18  60  CALM    29.83F
#MONUMENT HS    N/A         31  24  75  CALM    29.89F
#MT. VERNON 5SE N/A         27  20  74  CALM    29.83F
#SPRAY SCHOOL   N/A         32  N/A N/A CALM    N/A
#WINLOCK        N/A         30  20  66  CALM    29.86F
$$

ORZ506-260810-
OCHOCO AND JOHN DAY HIGHLANDS

CITY            SKY/WX      TMP DP  RH  WIND    PRES   REMARKS
#HORSE RIDGE DO N/A         29  16  58  SW8     N/A
#PAULINA SCHOOL N/A         30  20  66  W3      N/A
#PINE MTN OBS   N/A         20  14  77  S7      N/A
#PRAIRIE CITY   N/A         24  16  71  CALM    30.06F
#SENECA         N/A         17  N/A N/A CALM    N/A
#SENECA 9NW     N/A         17  12  80  CALM    30.12F
$$

ORZ049-260810-
GRANDE RONDE VALLEY

CITY            SKY/WX      TMP DP  RH  WIND    PRES   REMARKS
LA GRANDE       CLOUDY      34  21  58  NW3     29.89F
#COVE           N/A         32  25  75  W2      29.94F
#COVE SCHOOL    N/A         32  23  69  CALM    29.92F
#COVE 6NW       N/A         31  25  78  CALM    30.02F
#ELGIN 3N       N/A         32  17  53  S9      29.86F
#ELGIN 1E       N/A         33  24  69  CALM    N/A
#IMBLER SCHOOL  N/A         31  24  75  CALM    29.87F
#ISLAND CITY 4N N/A         35  34  96  CALM    30.02F
#UNION 1S       N/A         32  21  63  CALM    30.02F
$$

ORZ050-260810-
WALLOWA COUNTY

CITY            SKY/WX      TMP DP  RH  WIND    PRES   REMARKS
#IMNAHA SCHOOL  N/A         34  24  66  N2      29.92F
#IMNAHA 10S     N/A         29  19  66  CALM    30.11S
#JOSEPH 3N      N/A         25  16  68  CALM    29.88F
#JOSEPH 3W      N/A         22  15  74  CALM    N/A
#LOSTINE        N/A         28  20  71  CALM    29.81F
#LOSTINE 3SE    N/A         28  20  71  S1      29.89F
#MT HOWARD 8000 N/A         12   9  87  W8      29.61F
#PROMISE 1S     N/A         27  21  78  NE2     30.06F
#WALLOWA SCHOOL N/A         30  23  75  CALM    29.86F



$$



USA.gov is the U.S. government's official web portal to all federal, state and local government web resources and services.